Flag for Canada Weather past 2 weeks in Thunder Bay, Ontario, Canada

Now
46 °F

Low clouds.


Feels Like: 45 °F
Forecast: 40 / 53 °F
Wind: 3 mph from South

Location: Thunder Bay

Current Time: Oct 1, 2014 at 9:03:52 AM

Latest Report: Oct 1, 2014 at 8:00 AM


Visibility: 15 mi

Pressure: 29.98 "Hg

Humidity: 93%

Dew point: 45 °F

Location of Thunder BayLocation

Historic Weather in Thunder Bay — Graph

°F

Thunder Bay temperature yesterday

Maximum temperature yesterday: 54 °F (at 4:00 PM)
Minimum temperature yesterday: 30 °F (at 7:00 AM)
Average temperature yesterday: 42 °F

Past Weeks' High & Low Weather Summary

 TemperatureHumidityPressure
High81 °F (Sep 27, 5:00 PM)100% (Sep 16, 8:00 AM)30.29 "Hg (Sep 16, 8:00 AM)
Low27 °F (Sep 18, 8:00 AM)41% (Sep 22, 4:00 PM)29.53 "Hg (Sep 20, 6:00 AM)
Average52 °F82%30.08 "Hg
* Reported Sep 16 8:00 AM — Oct 1 8:00 AM, Thunder Bay, Weather by CustomWeather, © 2014

Note: Actual official high and low records may vary slightly from our data, if they occured in-between our weather recording intervals... More about our weather records

Advertising

Thunder Bay weather history for previous 24 hours

 ConditionsComfort  
Time TempWeatherWind HumidityBarometerVisibility
8:00 AM
Oct 1
46 °FLow clouds.3 mph93%29.98 "Hg15 mi
7:00 AM46 °FLow clouds.7 mph93%29.98 "Hg12 mi
6:00 AM45 °FLow clouds.2 mph100%29.99 "Hg12 mi
5:00 AM43 °FOvercast.5 mph93%29.98 "Hg12 mi
4:00 AM34 °FClear.No wind93%30.00 "Hg15 mi
3:00 AM34 °FClear.6 mph100%30.03 "Hg15 mi
2:00 AM32 °FClear.3 mph100%30.04 "Hg15 mi
1:00 AM32 °FPassing clouds.3 mph100%30.05 "Hg15 mi
12:00 AM36 °FPassing clouds.No wind93%30.07 "Hg15 mi
11:00 PM
Sep 30
36 °FClear.3 mph87%30.08 "Hg15 mi
10:48 PM36 °FClear.3 mph87%30.08 "Hg15 mi
10:00 PM37 °FClear.7 mph87%30.08 "Hg15 mi
9:00 PM43 °FClear.8 mph66%30.09 "Hg15 mi
8:00 PM46 °FPassing clouds.3 mph66%30.09 "Hg20 mi
7:00 PM50 °FPassing clouds.9 mph50%30.10 "Hg20 mi
6:00 PM52 °FPassing clouds.9 mph47%30.11 "Hg20 mi
5:00 PM54 °FSunny.8 mph44%30.11 "Hg20 mi
4:00 PM54 °FSunny.9 mph44%30.13 "Hg20 mi
3:00 PM52 °FSunny.12 mph50%30.15 "Hg20 mi
2:00 PM52 °FSunny.9 mph54%30.17 "Hg20 mi
1:00 PM50 °FPassing clouds.9 mph62%30.18 "Hg20 mi
11:00 AM45 °FPassing clouds.3 mph76%30.21 "Hg20 mi
10:00 AM39 °FPassing clouds.3 mph93%30.22 "Hg20 mi
9:00 AM34 °FFog.2 mph100%30.23 "Hg20 mi
Weather by CustomWeather, © 2014

See weather overviewHow to use our weather pages